Wind_Speed
18 17 18 18 19 20 22 25 26 28 33 38 41 34 36 32 33 38 38 33 31 29 23 22 26 23 20 20 19 16 15 15 14 9 5 11 16 16 14 14 15 11 14
20 21 21 22 22 23 24 24 28 30 32 33 33 35 37 35 37 38 35 29 29 24 23 24 25 21 25 22 19 17 16 15 16 14 10 10 12 11 11 12 13 10 12
19 22 25 28 27 27 28 27 27 27 29 30 30 31 32 33 34 35 35 31 27 24 23 28 24 24 24 23 20 16 17 16 14 18 11 11 9 10 13 11 12 11 11
22 23 26 28 32 32 30 29 30 29 28 31 32 32 34 33 34 31 29 29 28 23 28 26 23 24 24 22 18 18 15 15 17 15 13 12 10 12 12 12 11 10 10
29 29 29 30 31 34 35 33 30 32 28 32 33 35 36 35 35 34 33 30 30 27 27 24 24 22 20 16 15 17 17 17 16 17 16 14 12 11 15 12 9 12 11
32 34 35 32 32 34 36 36 32 31 29 32 35 37 38 38 38 38 34 32 31 27 27 23 21 22 22 23 21 19 18 21 19 17 15 19 15 14 15 14 11 12 10
37 39 36 33 34 34 34 35 36 32 31 36 37 38 39 41 40 39 35 34 30 28 26 24 22 18 24 21 21 22 21 19 19 18 16 16 16 16 14 16 13 11 8
40 40 37 36 37 36 35 36 36 33 33 37 39 40 40 42 38 38 40 29 28 24 24 26 25 19 18 16 15 19 19 17 20 19 17 19 18 16 16 16 16 15 13
43 42 44 37 35 37 35 34 34 32 36 40 40 40 40 41 40 41 40 26 24 23 22 20 19 17 17 20 16 15 14 16 17 17 19 19 18 18 16 18 17 16 11
42 37 40 37 36 35 32 32 32 36 37 40 41 40 39 43 42 38 36 23 25 22 20 18 20 18 19 17 18 15 16 15 17 18 16 13 14 16 16 16 15 16 12
40 42 40 37 34 33 31 34 33 35 37 41 41 38 38 40 39 38 33 26 24 23 19 16 19 23 18 15 18 16 15 15 15 13 14 13 13 13 14 14 12 13 19
34 36 35 34 33 32 36 38 37 31 42 40 38 36 36 35 39 39 34 26 23 21 18 17 17 20 18 15 17 17 15 15 13 13 14 13 14 14 15 14 11 11 10
34 36 40 40 39 46 38 37 36 38 39 37 40 42 36 44 44 42 33 26 23 21 20 20 18 16 18 17 18 15 13 12 12 14 14 12 12 15 15 16 10 11 7
37 38 39 40 31 32 44 38 37 39 44 40 43 39 38 46 46 41 36 27 29 22 17 18 17 17 17 18 17 16 14 14 12 12 13 13 13 12 11 14 17 15 14
34 37 35 52 63 50 46 38 44 43 44 36 34 39 47 48 47 40 36 26 21 18 21 17 17 18 18 17 16 16 14 13 15 14 11 13 12 10 9 14 15 12 12
33 30 33 25 28 50 46 41 38 35 32 32 35 38 34 39 37 33 31 25 23 19 15 15 18 20 19 17 17 15 13 10 9 11 12 12 14 12 9 9 11 12 10
24 25 20 8 23 33 37 39 37 33 35 32 36 30 28 28 34 30 28 24 22 18 14 15 18 20 17 17 17 14 12 11 11 12 15 14 12 14 14 11 13 13 9
20 15 4 8 18 29 33 36 39 42 38 32 27 25 27 23 28 27 25 22 24 19 13 14 17 19 20 19 16 14 14 12 12 12 12 12 14 15 15 12 9 9 9
13 9 11 23 26 34 38 33 34 33 35 36 29 25 24 24 25 23 23 19 19 16 14 15 17 19 22 19 14 14 13 13 12 12 13 12 12 13 12 12 10 10 10
10 8 27 29 27 34 32 31 32 28 29 30 32 30 29 28 27 25 24 18 17 14 15 16 17 18 22 15 15 12 13 11 11 11 11 10 9 9 11 13 11 8 10
10 19 26 28 27 33 32 29 27 29 26 23 31 28 27 26 27 23 15 18 15 15 15 14 17 19 21 16 16 12 10 9 10 10 10 9 8 8 9 9 6 13 12
15 19 27 27 29 29 27 26 27 28 25 27 26 28 22 21 16 15 15 13 14 17 16 16 15 18 18 15 13 13 11 9 8 7 9 8 8 8 7 9 10 8 7
22 19 21 24 25 26 30 27 28 31 26 27 25 22 17 18 21 21 21 20 18 19 20 20 18 17 14 15 12 11 9 8 8 8 9 9 7 5 7 7 8 8 8
27 24 25 23 25 29 26 27 29 27 30 28 25 25 24 22 19 20 19 17 17 18 20 19 18 18 16 13 14 14 13 12 9 8 7 7 8 8 8 7 7 9 9
26 24 26 26 26 28 31 32 29 27 30 32 29 24 20 18 19 19 18 18 17 19 20 18 20 19 18 15 11 9 10 8 6 6 6 6 7 7 7 6 7 8 9
26 27 25 29 29 33 35 35 31 35 36 32 26 21 23 22 19 18 17 18 18 18 18 17 14 14 15 14 10 11 10 8 6 6 7 6 6 6 7 7 5 4 3
Wind_Direction
282 280 280 276 271 269 267 263 253 264 265 251 248 241 248 243 227 234 237 234 230 233 232 223 228 221 224 223 218 226 238 243 249 251 207 232 251 256 245 248 244 245 250
284 286 282 280 276 270 267 268 266 258 262 258 258 256 238 231 231 234 229 217 223 219 218 217 217 220 214 213 214 225 233 242 239 252 231 241 258 253 258 262 249 231 237
287 282 284 282 278 273 269 272 269 266 260 254 243 242 235 226 224 224 219 206 212 207 216 212 216 213 214 218 207 224 233 239 243 243 247 227 244 243 241 235 250 246 238
287 286 282 278 277 276 270 269 271 266 257 251 238 234 225 223 217 213 207 204 206 209 212 215 211 214 214 215 213 218 224 229 229 235 232 219 236 233 232 242 241 229 220
284 288 281 276 272 272 270 265 266 266 253 249 234 231 223 217 212 207 205 200 206 206 210 210 211 210 212 211 214 226 223 224 232 233 240 225 228 223 224 230 227 214 222
284 285 284 275 269 266 264 265 265 265 250 243 231 227 220 215 211 206 199 197 203 202 202 203 205 210 204 212 216 217 216 223 227 230 238 235 233 231 223 217 212 202 212
282 287 281 272 270 262 257 259 262 259 246 237 228 222 216 210 206 205 195 200 197 197 206 200 197 203 215 221 222 221 229 235 234 232 235 242 241 222 226 212 210 211 208
284 282 275 274 270 262 254 252 255 255 241 228 222 216 207 201 200 203 198 192 194 203 200 201 196 204 221 205 214 220 227 239 242 244 248 246 239 241 240 216 205 197 214
283 278 275 278 260 261 253 251 248 249 231 221 215 205 199 194 199 201 190 188 185 188 193 193 196 205 226 206 205 217 220 228 238 243 244 256 248 239 225 210 192 198 209
280 276 276 267 266 263 253 256 248 240 224 217 205 197 193 196 197 193 178 176 182 181 180 193 203 202 214 211 209 216 222 226 238 249 242 235 231 223 213 206 210 205 202
280 282 280 271 267 265 256 257 242 226 220 206 196 189 190 200 187 179 172 177 179 177 179 193 204 198 211 211 207 215 219 237 240 217 222 229 216 208 194 195 210 218 221
277 272 270 269 271 265 269 247 230 230 208 192 186 183 188 189 175 170 169 174 174 176 184 192 203 206 210 214 209 219 228 223 231 216 210 203 204 200 193 196 205 210 208
277 274 272 272 272 268 248 228 240 198 191 179 169 171 178 171 169 170 171 169 172 176 185 186 204 206 206 210 215 216 211 209 204 204 201 202 213 211 202 195 195 179 174
280 282 279 283 259 230 224 238 201 182 175 168 174 167 164 167 167 169 172 169 177 180 186 198 213 198 203 208 204 203 202 207 212 210 218 215 203 202 208 208 216 220 223
279 279 276 258 231 251 234 182 170 177 172 165 170 168 169 169 171 174 174 174 170 179 193 202 195 195 199 197 200 204 201 198 198 189 188 200 194 187 207 212 212 211 211
273 289 314 113 151 146 153 154 161 161 164 169 169 161 162 169 170 174 172 171 178 194 182 180 194 197 194 196 192 181 183 185 189 197 203 207 203 191 193 197 209 212 207
297 305 336 103 132 142 146 147 147 143 155 155 152 153 159 169 175 175 178 182 185 175 174 198 197 197 189 184 173 171 169 185 200 207 205 195 192 198 194 213 218 221 221
294 302 311 164 146 141 145 143 139 136 136 140 148 157 166 170 172 175 179 179 171 169 182 197 192 187 184 181 170 177 173 176 176 181 178 186 196 198 199 192 207 220 218
269 262 159 150 143 142 135 131 130 134 145 149 151 159 164 164 170 175 175 169 171 182 184 187 188 187 184 178 176 177 164 171 176 176 186 196 200 206 210 212 213 216 236
228 196 157 144 141 140 134 133 133 132 139 146 154 157 157 163 162 163 164 172 172 182 188 186 187 185 182 172 173 170 173 171 170 173 179 183 185 204 215 217 221 232 233
176 145 153 158 144 140 140 140 139 140 142 145 154 156 157 160 160 159 168 170 168 179 176 179 178 175 180 185 190 181 179 173 179 180 184 191 199 213 208 221 237 228 235
167 148 158 148 145 141 145 144 140 139 139 141 145 143 144 156 157 161 162 167 177 184 179 168 165 176 171 174 178 182 175 178 174 184 192 195 206 203 200 211 223 240 238
171 170 161 150 150 149 142 138 136 136 138 137 141 144 141 149 156 162 166 160 171 176 176 175 173 162 169 170 168 177 174 172 178 178 184 185 188 188 207 205 225 240 251
168 170 153 148 149 145 139 139 135 138 141 142 141 149 154 154 164 164 167 168 171 174 176 176 176 173 158 163 160 168 167 164 167 164 175 181 194 215 238 237 246 270 249
152 153 147 146 141 142 142 141 139 144 142 148 148 156 163 158 155 160 165 165 165 168 171 174 182 180 183 180 173 174 168 174 192 189 203 220 237 240 252 257 277 259 276
143 141 140 155 154 152 150 151 153 152 156 157 156 151 152 153 152 153 157 163 167 167 173 175 179 188 197 200 201 187 189 200 207 231 252 256 234 258 236 258 251 240 222
Height
1429 1428 1427 1425 1425 1425 1425 1426 1426 1427 1426 1427 1432 1433 1432 1433 1434 1435 1439 1440 1444 1448 1449 1453 1457 1461 1464 1465 1468 1471 1474 1475 1474 1474 1472 1471 1472 1474 1474 1474 1473 1474 1472
1421 1418 1418 1418 1418 1417 1417 1416 1415 1415 1416 1418 1419 1420 1424 1425 1426 1427 1431 1434 1438 1441 1443 1449 1452 1456 1459 1459 1463 1467 1470 1470 1470 1471 1469 1469 1470 1470 1471 1471 1470 1470 1470
1414 1412 1411 1410 1410 1408 1407 1406 1405 1405 1406 1408 1411 1412 1413 1417 1417 1419 1423 1431 1434 1436 1438 1445 1447 1451 1453 1453 1459 1462 1465 1466 1466 1467 1466 1467 1467 1467 1468 1469 1467 1467 1467
1408 1406 1404 1401 1399 1398 1398 1398 1396 1394 1397 1399 1400 1404 1407 1410 1413 1414 1418 1427 1429 1430 1435 1438 1442 1447 1447 1448 1455 1457 1460 1461 1463 1463 1463 1465 1465 1466 1466 1466 1465 1465 1465
1400 1397 1395 1394 1391 1388 1387 1388 1386 1384 1385 1389 1391 1396 1400 1402 1405 1409 1415 1418 1422 1427 1430 1434 1439 1441 1442 1445 1452 1453 1456 1457 1458 1459 1460 1462 1462 1463 1463 1463 1463 1463 1463
1391 1389 1385 1383 1382 1379 1377 1375 1375 1374 1376 1379 1381 1387 1390 1394 1398 1403 1409 1410 1417 1421 1424 1430 1434 1435 1438 1443 1446 1449 1450 1451 1453 1455 1457 1458 1459 1460 1461 1461 1461 1461 1463
1381 1377 1374 1373 1370 1369 1368 1366 1363 1363 1365 1366 1372 1377 1381 1385 1390 1397 1401 1407 1411 1415 1419 1424 1429 1432 1435 1439 1442 1445 1446 1448 1450 1451 1453 1454 1456 1453 1457 1458 1458 1459 1462
1370 1366 1364 1362 1359 1357 1358 1356 1353 1352 1353 1356 1361 1367 1372 1378 1384 1387 1397 1403 1407 1410 1415 1419 1424 1428 1431 1435 1438 1441 1443 1445 1446 1448 1450 1450 1451 1452 1453 1455 1457 1458 1459
1357 1354 1351 1348 1346 1345 1344 1344 1343 1343 1345 1349 1354 1360 1366 1371 1375 1383 1392 1397 1402 1407 1412 1417 1421 1425 1426 1431 1436 1438 1441 1441 1443 1444 1445 1446 1447 1449 1449 1452 1453 1456 1458
1344 1340 1338 1337 1335 1333 1333 1332 1331 1333 1335 1340 1345 1353 1360 1364 1370 1378 1386 1392 1398 1405 1409 1414 1418 1422 1424 1428 1432 1435 1437 1438 1439 1440 1441 1442 1444 1445 1447 1449 1452 1454 1456
1333 1328 1325 1323 1323 1322 1322 1320 1320 1323 1327 1333 1340 1349 1357 1360 1368 1375 1381 1389 1395 1401 1406 1410 1414 1418 1422 1425 1429 1431 1434 1435 1436 1438 1439 1440 1442 1444 1446 1448 1450 1452 1454
1322 1316 1315 1312 1311 1310 1310 1307 1310 1313 1321 1328 1336 1345 1353 1359 1365 1373 1381 1387 1393 1399 1404 1408 1411 1415 1419 1423 1426 1427 1430 1432 1433 1434 1437 1438 1440 1442 1445 1448 1450 1450 1452
1310 1307 1302 1297 1298 1295 1297 1298 1303 1310 1317 1324 1330 1338 1345 1353 1362 1371 1380 1385 1391 1398 1402 1405 1409 1413 1416 1420 1422 1425 1428 1430 1431 1433 1435 1437 1439 1441 1444 1446 1448 1449 1451
1297 1292 1287 1281 1278 1281 1288 1293 1300 1305 1312 1319 1327 1335 1343 1350 1359 1369 1375 1383 1390 1394 1399 1404 1408 1410 1414 1417 1420 1423 1426 1428 1431 1433 1435 1437 1438 1439 1441 1444 1448 1450 1452
1291 1281 1273 1261 1263 1266 1289 1289 1294 1305 1313 1320 1328 1333 1338 1347 1357 1365 1373 1381 1387 1392 1397 1402 1405 1408 1412 1415 1418 1422 1424 1427 1430 1432 1434 1435 1437 1438 1440 1443 1446 1448 1450
1282 1270 1253 1242 1236 1262 1275 1286 1297 1307 1316 1323 1327 1334 1343 1350 1358 1367 1375 1381 1386 1391 1396 1400 1403 1406 1410 1413 1417 1420 1423 1426 1428 1430 1432 1434 1436 1439 1441 1443 1444 1446 1448
1279 1271 1265 1266 1273 1277 1279 1285 1296 1309 1317 1324 1332 1339 1345 1352 1361 1368 1375 1381 1387 1392 1397 1398 1402 1405 1409 1412 1416 1420 1423 1425 1427 1429 1432 1433 1435 1437 1439 1442 1443 1445 1447
1280 1276 1272 1272 1273 1276 1282 1291 1300 1309 1318 1329 1337 1344 1351 1357 1363 1369 1375 1381 1386 1392 1396 1398 1400 1403 1408 1412 1416 1420 1422 1425 1428 1429 1431 1432 1433 1435 1438 1440 1443 1444 1445
1282 1281 1279 1281 1283 1285 1291 1300 1306 1314 1321 1329 1337 1347 1355 1360 1366 1372 1377 1382 1387 1392 1394 1396 1399 1403 1407 1412 1416 1418 1421 1424 1425 1427 1429 1430 1432 1435 1436 1439 1441 1442 1442
1282 1282 1285 1287 1290 1294 1300 1307 1313 1319 1327 1335 1342 1349 1355 1360 1366 1372 1378 1382 1387 1390 1392 1395 1398 1402 1407 1412 1415 1418 1421 1423 1424 1426 1428 1430 1432 1434 1435 1438 1440 1441 1441
1283 1282 1288 1293 1297 1301 1304 1313 1319 1326 1333 1339 1345 1352 1358 1363 1368 1374 1378 1382 1386 1389 1392 1395 1398 1402 1406 1411 1414 1417 1420 1423 1424 1426 1428 1430 1432 1433 1435 1436 1437 1438 1440
1286 1287 1293 1297 1302 1306 1313 1318 1323 1330 1337 1342 1351 1357 1363 1368 1372 1376 1379 1384 1386 1389 1393 1396 1400 1403 1407 1411 1414 1417 1419 1422 1424 1426 1427 1429 1431 1432 1434 1435 1436 1436 1437
1290 1294 1297 1302 1307 1311 1316 1322 1328 1333 1340 1348 1356 1362 1366 1369 1371 1375 1379 1382 1385 1389 1392 1396 1400 1404 1408 1411 1415 1417 1420 1422 1424 1425 1427 1429 1431 1432 1434 1434 1435 1435 1436
1292 1296 1301 1306 1310 1315 1321 1326 1332 1338 1345 1351 1356 1361 1364 1367 1372 1377 1381 1384 1386 1390 1393 1397 1400 1405 1408 1411 1413 1415 1418 1420 1422 1424 1426 1428 1430 1431 1432 1432 1433 1432 1434
1295 1299 1304 1309 1313 1317 1323 1330 1337 1342 1347 1351 1356 1360 1366 1371 1375 1379 1382 1385 1388 1391 1394 1397 1401 1405 1408 1410 1413 1416 1418 1420 1422 1424 1426 1427 1429 1430 1431 1430 1432 1431 1432
1299 1304 1307 1311 1316 1321 1326 1331 1337 1342 1347 1353 1358 1363 1368 1373 1377 1380 1383 1387 1390 1393 1396 1399 1402 1405 1408 1412 1414 1417 1419 1421 1423 1425 1426 1426 1427 1428 1429 1429 1430 1430 1431